Home > Weather > Lindau (Bodensee) > Past weeks

Flag for Germany Past Weather in Lindau (Bodensee), Bavaria, Germany — Yesterday and Last 2 Weeks

Now
47 °F

Cool.


Feels Like: 47 °F
Forecast: 45 / 71 °F
Wind: 1 mph from Southeast

Location: Bregenz

Current Time: May 24, 2016 at 11:48:11 PM

Latest Report: May 24, 2016 at 11:00 PM


Visibility: N/A

Pressure: 29.99 "Hg

Humidity: 97%

Dew Point: 46 °F

Location of Lindau (Bodensee)Location

Past Weather in Lindau (Bodensee) — Graph

°F

Lindau (Bodensee) Temperature Yesterday

Maximum temperature yesterday: 61 °F (at 12:00 AM)
Minimum temperature yesterday: 46 °F (at 11:00 PM)
Average temperature yesterday: 50 °F

High & Low Weather Summary for the Past Weeks

 TemperatureHumidityPressure
High84 °F (May 22, 3:00 PM)99% (May 13, 10:00 PM)30.23 "Hg (May 13, 10:00 PM)
Low41 °F (May 16, 6:00 AM)23% (May 22, 3:00 PM)29.47 "Hg (May 11, 7:00 PM)
Average55 °F76%29.90 "Hg
* Reported May 9 10:00 PM — May 24 10:00 PM, Lindau (Bodensee), Weather by CustomWeather, © 2016

Note: Actual official high and low records may vary slightly from our data, if they occured in-between our weather recording intervals... More about our weather records

Advertising

Lindau (Bodensee) Weather History for the Previous 24 Hours

Scroll right to see more
 ConditionsComfort  
Time TempWeatherWind HumidityBarometerVisibility
10:00 PM
Tue, May 24
48 °FCool.1 mph96%29.98 "HgN/A
9:00 PM51 °FCool.2 mph93%29.97 "HgN/A
8:00 PM53 °FCool.1 mph90%29.97 "HgN/A
7:00 PM54 °FCool.1 mph87%29.96 "HgN/A
6:00 PM56 °FCool.1 mph74%29.96 "HgN/A
5:00 PM56 °FCool.1 mph67%29.98 "HgN/A
4:00 PM55 °FCool.1 mph70%29.98 "HgN/A
3:00 PM54 °FCool.1 mph81%30.00 "HgN/A
2:00 PM54 °FOvercast.No wind76%30.00 "Hg9 mi
1:00 PM52 °FSprinkles. Cloudy.1 mph85%30.02 "HgN/A
12:00 PM51 °FFog.2 mph86%30.03 "HgN/A
11:00 AM48 °FDrizzle. Overcast.3 mph91%30.03 "Hg4 mi
10:00 AM47 °FFog.5 mph91%30.02 "HgN/A
9:00 AM45 °FFog.5 mph94%30.03 "HgN/A
8:00 AM45 °FCool.6 mph95%30.04 "HgN/A
7:00 AM44 °FRain. Low clouds.5 mph96%30.03 "Hg3 mi
6:00 AM45 °FFog.3 mph97%30.03 "HgN/A
5:00 AM44 °FQuite cool.3 mph96%30.02 "HgN/A
4:00 AM45 °FFog.2 mph95%30.02 "HgN/A
3:00 AM46 °FFog.2 mph93%30.02 "HgN/A
2:00 AM46 °FCool.2 mph91%30.02 "HgN/A
12:00 AM46 °FFog.3 mph87%30.03 "HgN/A
11:00 PM
Mon, May 23
46 °FCool.3 mph90%30.05 "HgN/A
Weather by CustomWeather, © 2016

See weather overviewHow to use our weather pages